Time,TemperatureF,DewpointF,PressureIn,WindDirection,WindDirectionDegrees,WindSpeedMPH,WindSpeedGustMPH,Humidity,HourlyPrecipIn,Conditions,Clouds,dailyrainin,SoftwareType,DateUTC
2013-02-06 00:01:00,40.0,30.0,30.03,SE,132,7.0,11.0,66,0.00,,,0.00,,2013-02-06 06:01:00,
2013-02-06 00:11:00,40.0,30.0,30.03,SE,132,7.0,11.0,66,0.00,,,0.00,,2013-02-06 06:11:00,
2013-02-06 00:21:00,40.0,29.0,30.02,SE,130,9.0,12.0,65,0.00,,,0.00,,2013-02-06 06:21:00,
2013-02-06 00:32:00,39.0,29.0,30.02,SE,134,8.0,12.0,66,0.00,,,0.00,,2013-02-06 06:32:00,
2013-02-06 00:42:00,39.0,29.0,30.02,SE,134,8.0,12.0,66,0.00,,,0.00,,2013-02-06 06:42:00,
2013-02-06 00:51:00,39.0,29.0,30.03,SE,146,7.0,12.0,67,0.00,,,0.00,,2013-02-06 06:51:00,
2013-02-06 01:01:00,40.0,30.0,30.02,SE,136,9.0,12.0,66,0.00,,,0.00,,2013-02-06 07:01:00,
2013-02-06 01:11:00,40.0,30.0,30.02,SE,136,9.0,12.0,66,0.00,,,0.00,,2013-02-06 07:11:00,
2013-02-06 01:21:00,40.0,29.0,30.02,SE,128,9.0,13.0,65,0.00,,,0.00,,2013-02-06 07:21:00,
2013-02-06 01:32:00,40.0,29.0,30.01,SE,137,12.0,16.0,65,0.00,,,0.00,,2013-02-06 07:32:00,
2013-02-06 01:42:00,40.0,29.0,30.01,SE,137,12.0,16.0,65,0.00,,,0.00,,2013-02-06 07:42:00,
2013-02-06 01:51:00,41.0,29.0,30.00,SE,146,13.0,19.0,63,0.00,,,0.00,,2013-02-06 07:51:00,
2013-02-06 02:01:00,41.0,29.0,30.00,SE,141,13.0,17.0,63,0.00,,,0.00,,2013-02-06 08:01:00,
2013-02-06 02:11:00,41.0,29.0,30.00,SE,141,13.0,17.0,63,0.00,,,0.00,,2013-02-06 08:11:00,
2013-02-06 02:21:00,41.0,29.0,30.00,SE,142,10.0,16.0,63,0.00,,,0.00,,2013-02-06 08:21:00,
2013-02-06 02:31:00,41.0,29.0,30.00,SE,144,12.0,16.0,63,0.00,,,0.00,,2013-02-06 08:31:00,
2013-02-06 02:42:00,41.0,29.0,30.00,SE,144,12.0,16.0,63,0.00,,,0.00,,2013-02-06 08:42:00,
2013-02-06 02:53:00,41.0,29.0,30.00,SE,144,10.0,15.0,63,0.00,,,0.00,,2013-02-06 08:53:00,
2013-02-06 03:01:00,41.0,30.0,30.00,SE,146,10.0,14.0,64,0.00,,,0.00,,2013-02-06 09:01:00,
2013-02-06 03:11:00,41.0,30.0,30.00,SE,146,10.0,14.0,64,0.00,,,0.00,,2013-02-06 09:11:00,
2013-02-06 03:21:00,41.0,30.0,30.00,SE,146,10.0,14.0,64,0.00,,,0.00,,2013-02-06 09:21:00,
2013-02-06 03:31:00,40.0,30.0,29.99,SSE,149,11.0,14.0,66,0.00,,,0.00,,2013-02-06 09:31:00,
2013-02-06 03:42:00,40.0,30.0,29.99,SSE,149,11.0,14.0,66,0.00,,,0.00,,2013-02-06 09:42:00,
2013-02-06 03:52:00,40.0,30.0,29.98,SE,145,12.0,17.0,66,0.00,,,0.00,,2013-02-06 09:52:00,
2013-02-06 04:01:00,40.0,30.0,29.98,SSE,148,13.0,19.0,66,0.00,,,0.00,,2013-02-06 10:01:00,
2013-02-06 04:11:00,40.0,30.0,29.98,SSE,148,13.0,19.0,66,0.00,,,0.00,,2013-02-06 10:11:00,
2013-02-06 04:21:00,40.0,30.0,29.98,SSE,152,13.0,17.0,67,0.00,,,0.00,,2013-02-06 10:21:00,
2013-02-06 04:31:00,39.0,30.0,29.98,SSE,157,9.0,14.0,69,0.00,,,0.00,,2013-02-06 10:31:00,
2013-02-06 04:42:00,39.0,30.0,29.98,SSE,157,9.0,14.0,69,0.00,,,0.00,,2013-02-06 10:42:00,
2013-02-06 04:51:00,39.0,30.0,29.97,SSE,157,11.0,13.0,70,0.00,,,0.00,,2013-02-06 10:51:00,
2013-02-06 05:01:00,39.0,30.0,29.97,SSE,157,7.0,13.0,70,0.00,,,0.00,,2013-02-06 11:01:00,
2013-02-06 05:11:00,39.0,30.0,29.97,SSE,157,7.0,13.0,70,0.00,,,0.00,,2013-02-06 11:11:00,
2013-02-06 05:22:00,38.0,30.0,29.98,SSE,156,6.0,10.0,72,0.00,,,0.00,,2013-02-06 11:22:00,
2013-02-06 05:32:00,38.0,30.0,29.98,SSE,156,7.0,10.0,72,0.00,,,0.00,,2013-02-06 11:32:00,
2013-02-06 05:42:00,38.0,30.0,29.98,SSE,156,7.0,10.0,72,0.00,,,0.00,,2013-02-06 11:42:00,
2013-02-06 05:52:00,39.0,30.0,29.98,SSE,157,6.0,12.0,71,0.00,,,0.00,,2013-02-06 11:52:00,
2013-02-06 06:02:00,39.0,30.0,29.98,SSE,166,5.0,10.0,71,0.00,,,0.00,,2013-02-06 12:02:00,
2013-02-06 06:12:00,39.0,30.0,29.98,SSE,166,5.0,10.0,71,0.00,,,0.00,,2013-02-06 12:12:00,
2013-02-06 06:22:00,38.0,30.0,29.98,SSE,154,7.0,11.0,72,0.00,,,0.00,,2013-02-06 12:22:00,
2013-02-06 06:32:00,38.0,30.0,29.97,SSE,163,6.0,12.0,73,0.00,,,0.00,,2013-02-06 12:32:00,
2013-02-06 06:42:00,38.0,30.0,29.97,SSE,163,6.0,12.0,73,0.00,,,0.00,,2013-02-06 12:42:00,
2013-02-06 06:52:00,38.0,30.0,29.97,South,169,8.0,12.0,73,0.00,,,0.00,,2013-02-06 12:52:00,
2013-02-06 07:01:00,38.0,30.0,29.97,SSE,159,8.0,13.0,74,0.00,,,0.00,,2013-02-06 13:01:00,
2013-02-06 07:12:00,38.0,30.0,29.97,SSE,159,8.0,13.0,74,0.00,,,0.00,,2013-02-06 13:12:00,
2013-02-06 07:22:00,38.0,30.0,29.97,SSE,163,6.0,13.0,73,0.00,,,0.00,,2013-02-06 13:22:00,
2013-02-06 07:32:00,38.0,30.0,29.97,South,169,8.0,11.0,74,0.00,,,0.00,,2013-02-06 13:32:00,
2013-02-06 07:42:00,38.0,30.0,29.97,South,169,8.0,11.0,74,0.00,,,0.00,,2013-02-06 13:42:00,
2013-02-06 07:52:00,38.0,30.0,29.96,SSE,165,7.0,13.0,74,0.00,,,0.00,,2013-02-06 13:52:00,
2013-02-06 08:02:00,38.0,30.0,29.96,SSE,161,7.0,12.0,74,0.00,,,0.00,,2013-02-06 14:02:00,
2013-02-06 08:11:00,38.0,30.0,29.96,SSE,161,7.0,12.0,74,0.00,,,0.00,,2013-02-06 14:11:00,
2013-02-06 08:22:00,38.0,30.0,29.96,SSE,165,8.0,12.0,74,0.00,,,0.00,,2013-02-06 14:22:00,
2013-02-06 08:32:00,38.0,30.0,29.96,South,184,8.0,12.0,74,0.00,,,0.00,,2013-02-06 14:32:00,
2013-02-06 08:42:00,38.0,30.0,29.96,South,184,8.0,12.0,74,0.00,,,0.00,,2013-02-06 14:42:00,
2013-02-06 08:52:00,39.0,31.0,29.96,SSE,165,8.0,13.0,73,0.00,,,0.00,,2013-02-06 14:52:00,
2013-02-06 09:01:00,41.0,32.0,29.96,South,169,10.0,16.0,71,0.00,,,0.00,,2013-02-06 15:01:00,
2013-02-06 09:11:00,42.0,33.0,29.96,South,183,11.0,16.0,70,0.00,,,0.00,,2013-02-06 15:11:00,
2013-02-06 09:21:00,42.0,33.0,29.96,South,183,11.0,16.0,70,0.00,,,0.00,,2013-02-06 15:21:00,
2013-02-06 09:31:00,45.0,34.0,29.95,SSE,165,12.0,20.0,65,0.00,,,0.00,,2013-02-06 15:31:00,
2013-02-06 09:52:00,47.0,35.0,29.95,South,177,13.0,21.0,62,0.00,,,0.00,,2013-02-06 15:52:00,
2013-02-06 10:01:00,48.0,35.0,29.94,South,182,10.0,23.0,61,0.00,,,0.00,,2013-02-06 16:01:00,
2013-02-06 10:21:00,50.0,37.0,29.93,South,176,14.0,18.0,60,0.00,,,0.00,,2013-02-06 16:21:00,
2013-02-06 10:32:00,51.0,38.0,29.93,South,183,10.0,19.0,61,0.00,,,0.00,,2013-02-06 16:32:00,
2013-02-06 10:51:00,52.0,38.0,29.93,South,171,7.0,15.0,59,0.00,,,0.00,,2013-02-06 16:51:00,
2013-02-06 11:02:00,53.0,38.0,29.92,SSW,195,7.0,22.0,57,0.00,,,0.00,,2013-02-06 17:02:00,
2013-02-06 11:11:00,53.0,38.0,29.92,SSW,195,7.0,22.0,57,0.00,,,0.00,,2013-02-06 17:11:00,
2013-02-06 11:21:00,53.0,38.0,29.92,South,171,13.0,23.0,56,0.00,,,0.00,,2013-02-06 17:21:00,
2013-02-06 11:32:00,54.0,38.0,29.91,South,173,11.0,22.0,54,0.00,,,0.00,,2013-02-06 17:32:00,
2013-02-06 11:42:00,54.0,38.0,29.91,SSW,205,7.0,21.0,54,0.00,,,0.00,,2013-02-06 17:42:00,
2013-02-06 11:52:00,54.0,38.0,29.91,SSW,205,7.0,21.0,54,0.00,,,0.00,,2013-02-06 17:52:00,
2013-02-06 12:01:00,56.0,40.0,29.90,South,180,17.0,23.0,55,0.00,,,0.00,,2013-02-06 18:01:00,
2013-02-06 12:11:00,57.0,42.0,29.90,SSW,211,11.0,20.0,57,0.00,,,0.00,,2013-02-06 18:11:00,
2013-02-06 12:23:00,57.0,42.0,29.90,SSW,211,11.0,20.0,57,0.00,,,0.00,,2013-02-06 18:23:00,
2013-02-06 12:32:00,56.0,43.0,29.89,SW,219,5.0,20.0,62,0.00,,,0.00,,2013-02-06 18:32:00,
2013-02-06 12:42:00,56.0,43.0,29.89,SW,219,5.0,20.0,62,0.00,,,0.00,,2013-02-06 18:42:00,
2013-02-06 12:52:00,57.0,45.0,29.88,South,176,10.0,20.0,65,0.00,,,0.00,,2013-02-06 18:52:00,
2013-02-06 13:01:00,59.0,47.0,29.87,South,191,3.0,15.0,65,0.00,,,0.00,,2013-02-06 19:01:00,
2013-02-06 13:11:00,59.0,47.0,29.87,South,191,3.0,15.0,65,0.00,,,0.00,,2013-02-06 19:11:00,
2013-02-06 13:21:00,59.0,47.0,29.87,South,191,3.0,15.0,65,0.00,,,0.00,,2013-02-06 19:21:00,
2013-02-06 13:32:00,59.0,47.0,29.85,SSW,207,6.0,13.0,65,0.00,,,0.00,,2013-02-06 19:32:00,
2013-02-06 13:42:00,59.0,47.0,29.85,SSW,207,6.0,13.0,65,0.00,,,0.00,,2013-02-06 19:42:00,
2013-02-06 13:52:00,60.0,48.0,29.84,South,190,13.0,22.0,64,0.00,,,0.00,,2013-02-06 19:52:00,
2013-02-06 14:01:00,59.0,48.0,29.83,South,189,2.0,14.0,68,0.00,,,0.00,,2013-02-06 20:01:00,
2013-02-06 14:11:00,59.0,49.0,29.83,South,182,0.0,13.0,70,0.00,,,0.00,,2013-02-06 20:11:00,
2013-02-06 14:21:00,59.0,49.0,29.83,South,182,0.0,13.0,70,0.00,,,0.00,,2013-02-06 20:21:00,
2013-02-06 14:32:00,58.0,49.0,29.81,SSE,161,1.0,15.0,71,0.00,,,0.00,,2013-02-06 20:32:00,
2013-02-06 14:42:00,58.0,49.0,29.81,SSE,161,1.0,15.0,71,0.00,,,0.00,,2013-02-06 20:42:00,
2013-02-06 14:52:00,59.0,50.0,29.81,SSE,163,1.0,13.0,71,0.00,,,0.00,,2013-02-06 20:52:00,
2013-02-06 15:02:00,59.0,49.0,29.81,SSW,195,10.0,19.0,70,0.00,,,0.00,,2013-02-06 21:02:00,
2013-02-06 15:11:00,59.0,49.0,29.81,SSW,195,10.0,19.0,70,0.00,,,0.00,,2013-02-06 21:11:00,
2013-02-06 15:21:00,59.0,50.0,29.80,SW,215,1.0,19.0,72,0.00,,,0.00,,2013-02-06 21:21:00,
2013-02-06 15:32:00,59.0,50.0,29.80,South,190,2.0,11.0,73,0.00,,,0.00,,2013-02-06 21:32:00,
2013-02-06 15:42:00,59.0,50.0,29.80,South,190,2.0,11.0,73,0.00,,,0.00,,2013-02-06 21:42:00,
2013-02-06 15:51:00,60.0,51.0,29.79,SSW,211,2.0,10.0,72,0.00,,,0.00,,2013-02-06 21:51:00,
2013-02-06 16:01:00,60.0,51.0,29.78,SW,223,0.0,19.0,73,0.00,,,0.00,,2013-02-06 22:01:00,
2013-02-06 16:11:00,60.0,51.0,29.78,SW,223,0.0,19.0,73,0.00,,,0.00,,2013-02-06 22:11:00,
2013-02-06 16:21:00,59.0,51.0,29.78,South,178,2.0,13.0,74,0.00,,,0.00,,2013-02-06 22:21:00,
2013-02-06 16:31:00,58.0,50.0,29.78,SSE,159,6.0,15.0,76,0.00,,,0.00,,2013-02-06 22:31:00,
2013-02-06 16:42:00,58.0,50.0,29.78,SSE,159,6.0,15.0,76,0.00,,,0.00,,2013-02-06 22:42:00,
2013-02-06 16:51:00,58.0,51.0,29.78,South,180,6.0,13.0,77,0.00,,,0.00,,2013-02-06 22:51:00,
2013-02-06 17:01:00,57.0,50.0,29.78,South,178,9.0,12.0,78,0.00,,,0.00,,2013-02-06 23:01:00,
2013-02-06 17:11:00,57.0,50.0,29.78,South,178,9.0,12.0,78,0.00,,,0.00,,2013-02-06 23:11:00,
2013-02-06 17:21:00,57.0,50.0,29.78,South,179,7.0,18.0,78,0.00,,,0.00,,2013-02-06 23:21:00,
2013-02-06 17:32:00,56.0,50.0,29.78,SSW,206,2.0,15.0,80,0.00,,,0.00,,2013-02-06 23:32:00,
2013-02-06 17:42:00,56.0,50.0,29.78,SSW,206,2.0,15.0,80,0.00,,,0.00,,2013-02-06 23:42:00,
2013-02-06 17:52:00,56.0,50.0,29.78,SSW,192,4.0,16.0,81,0.00,,,0.00,,2013-02-06 23:52:00,
2013-02-06 18:01:00,56.0,50.0,29.78,South,184,5.0,17.0,81,0.00,,,0.00,,2013-02-07 00:01:00,
2013-02-06 18:11:00,56.0,50.0,29.78,South,184,5.0,17.0,81,0.00,,,0.00,,2013-02-07 00:11:00,
2013-02-06 18:21:00,55.0,50.0,29.78,SSW,200,7.0,17.0,82,0.00,,,0.00,,2013-02-07 00:21:00,
2013-02-06 18:31:00,55.0,50.0,29.78,SSW,205,5.0,15.0,84,0.00,,,0.00,,2013-02-07 00:31:00,
2013-02-06 18:42:00,55.0,50.0,29.78,SSW,205,5.0,15.0,84,0.00,,,0.00,,2013-02-07 00:42:00,
2013-02-06 18:51:00,55.0,51.0,29.78,South,178,8.0,15.0,85,0.00,,,0.00,,2013-02-07 00:51:00,
2013-02-06 19:01:00,54.0,50.0,29.77,SSE,165,7.0,14.0,86,0.00,,,0.00,,2013-02-07 01:01:00,
2013-02-06 19:11:00,54.0,50.0,29.77,SSE,165,7.0,14.0,86,0.00,,,0.00,,2013-02-07 01:11:00,
2013-02-06 19:21:00,54.0,50.0,29.77,SSW,194,7.0,16.0,87,0.00,,,0.00,,2013-02-07 01:21:00,
2013-02-06 19:31:00,53.0,50.0,29.77,SSE,165,7.0,13.0,89,0.00,,,0.00,,2013-02-07 01:31:00,
2013-02-06 19:42:00,53.0,50.0,29.77,SSE,165,7.0,13.0,89,0.00,,,0.00,,2013-02-07 01:42:00,
2013-02-06 19:52:00,53.0,50.0,29.77,SSW,197,6.0,12.0,89,0.00,,,0.00,,2013-02-07 01:52:00,
2013-02-06 20:01:00,54.0,52.0,29.78,SW,229,3.0,13.0,92,0.00,,,0.00,,2013-02-07 02:01:00,
2013-02-06 20:11:00,54.0,52.0,29.78,SW,229,3.0,13.0,92,0.00,,,0.00,,2013-02-07 02:11:00,
2013-02-06 20:21:00,54.0,51.0,29.79,SSW,211,0.0,10.0,88,0.00,,,0.00,,2013-02-07 02:21:00,
2013-02-06 20:31:00,53.0,50.0,29.80,SSW,194,0.0,1.0,88,0.00,,,0.00,,2013-02-07 02:31:00,
2013-02-06 20:41:00,53.0,50.0,29.80,SSW,194,0.0,1.0,88,0.00,,,0.00,,2013-02-07 02:41:00,
2013-02-06 20:51:00,53.0,50.0,29.80,SSW,194,0.0,1.0,88,0.00,,,0.00,,2013-02-07 02:51:00,
2013-02-06 21:02:00,53.0,50.0,29.82,NW,304,0.0,0.0,89,0.00,,,0.00,,2013-02-07 03:02:00,
2013-02-06 21:11:00,53.0,50.0,29.82,NW,304,0.0,0.0,89,0.00,,,0.00,,2013-02-07 03:11:00,
2013-02-06 21:21:00,53.0,50.0,29.82,WNW,303,0.0,0.0,89,0.00,,,0.00,,2013-02-07 03:21:00,
2013-02-06 21:31:00,53.0,50.0,29.82,WNW,303,0.0,0.0,89,0.00,,,0.00,,2013-02-07 03:31:00,
2013-02-06 21:42:00,53.0,50.0,29.82,WNW,303,0.0,0.0,89,0.00,,,0.00,,2013-02-07 03:42:00,
2013-02-06 21:51:00,52.0,49.0,29.82,SE,145,1.0,2.0,89,0.00,,,0.00,,2013-02-07 03:51:00,
2013-02-06 22:01:00,50.0,47.0,29.82,SSE,150,0.0,2.0,89,0.00,,,0.00,,2013-02-07 04:01:00,
2013-02-06 22:11:00,50.0,47.0,29.82,SSE,150,0.0,2.0,89,0.00,,,0.00,,2013-02-07 04:11:00,
2013-02-06 22:22:00,51.0,48.0,29.82,SSE,150,0.0,1.0,91,0.00,,,0.00,,2013-02-07 04:22:00,
2013-02-06 22:31:00,51.0,48.0,29.81,SSE,150,0.0,0.0,91,0.00,,,0.00,,2013-02-07 04:31:00,
2013-02-06 22:41:00,51.0,48.0,29.81,SSE,150,0.0,0.0,91,0.00,,,0.00,,2013-02-07 04:41:00,
2013-02-06 22:52:00,49.0,46.0,29.80,SSE,155,3.0,3.0,91,0.00,,,0.00,,2013-02-07 04:52:00,
2013-02-06 23:02:00,49.0,47.0,29.81,SSE,155,0.0,1.0,92,0.00,,,0.00,,2013-02-07 05:02:00,
2013-02-06 23:12:00,49.0,47.0,29.81,SSE,155,0.0,1.0,92,0.00,,,0.00,,2013-02-07 05:12:00,
2013-02-06 23:21:00,50.0,48.0,29.81,SSE,156,1.0,4.0,92,0.00,,,0.00,,2013-02-07 05:21:00,
2013-02-06 23:32:00,50.0,48.0,29.81,South,173,3.0,7.0,92,0.00,,,0.00,,2013-02-07 05:32:00,
2013-02-06 23:42:00,50.0,48.0,29.81,South,173,3.0,7.0,92,0.00,,,0.00,,2013-02-07 05:42:00,
2013-02-06 23:52:00,51.0,49.0,29.81,South,175,1.0,5.0,92,0.00,,,0.00,,2013-02-07 05:52:00,